Погода в Новороссийском

Россия / Новосибирская область     54°20′42″N   78°17′05″E
темп.,
°C
ветер,
м/с
пор.,
м/с
влажн.,
%
обл.,
%
осадки,
мм/ч
давл.,
гПа
погр.,
м
27 января, чт
чт2701:00−25сз2210080 0.0 103111
04:00−25з22100100 0.0 103310
07:00−27юз11100100 0.0 10349
10:00−27юз22100100 0.0 103628
13:00−19ююз239986 0.0 103590
16:00−16ю24965 0.0 1035114
19:00−21ю3410099 0.0 103638
22:00−21ю3610099 0.0 103570
28 января, пт
пт2801:00−20ю36100100 0.0 103477
04:00−21ю2410089 0.0 103453
07:00−21ю359996 0.0 103358
10:00−22ю369981 0.0 103365
13:00−16ю369392 0.0 1033142
16:00−14ю259393 0.0 1031146
19:00−19ююв229995 0.0 103232
22:00−19ю3498100 0.0 103152
29 января, сб
сб2901:00−17ю3494100 0.0 103167
04:00−20ююв229990 0.0 103129
07:00−22ююв2210089 0.0 103130
10:00−23ююв349855 0.0 103147
13:00−16ююв368833 0.0 1031127
16:00−14юв358998 0.0 1030118
19:00−16вюв3690100 0.0 103078
22:00−15вюв3788100 0.0 1030102
30 января, вс
вс3001:00−14вюв3888100 0.0 1028121
04:00−14вюв4987100 0.0 1027126
07:00−13вюв41184100 0.0 1026185
10:00−15вюв499033 0.0 1025129
13:00−11юв489022 0.0 1025244
16:00−9юв379491 0.0 1024229
19:00−9юв369795 0.1 1024139
22:00−7ююв389690 0.3 1024174
31 января, пн
пн3101:00−7ююв389676 0.4 1023191
04:00−9ю379687 0.1 1024149
07:00−12ююз359771 0.3 102574
10:00−11ююз3696100 0.1 1026148
13:00−10юз468799 0.1 1027280
16:00−12юз3689100 0.0 1028216
19:00−17ююз2396100 0.0 102937
22:00−17ююз3494100 0.0 103051